Palmer, AK

1:47 PM AKDT on March 30, 2017 (GMT -0800)
Palmer Municipal

Weather History for PAAQ - November, 2013

Change the Weather History Date:

Sunday, November 17, 2013

  Actual Average Record
Temperature  
Mean Temperature 9 °F -  
Max Temperature 18 °F 26 °F 45 °F (1957)
Min Temperature 0 °F 11 °F -16 °F (1956)
Degree Days  
Heating Degree Days 56    
Moisture  
Dew Point -3 °F    
Average Humidity 50    
Maximum Humidity 84    
Minimum Humidity 37    
Precipitation  
Precipitation 0.00 in - - ()
Sea Level Pressure  
Sea Level Pressure 30.19 in    
Wind  
Wind Speed 14 mph (NNE)    
Max Wind Speed 32 mph    
Max Gust Speed 47 mph    
Visibility 10 miles    
Events      
Averages and records for this station are not official NWS values.
T = Trace of Precipitation, MM = Missing Value Source: NWS Daily Summary

Daily Weather History Graph

Daily Weather History Graph

Search for Another Location

Airport or City:

Trip Planner

Search our weather history database for the weather conditions in past years. The results will help you decide how hot, cold, wet, or windy it might be!

Date:

Astronomy

Nov. 17, 2013 Rise Set
Actual Time 9:11 AM AKST 4:10 PM AKST
Civil Twilight 8:17 AM AKST 5:04 PM AKST
Nautical Twilight 7:22 AM AKST 5:59 PM AKST
Astronomical Twilight 6:30 AM AKST 6:51 PM AKST
Moon 4:34 PM AKST (11/17) 9:13 AM AKST (11/17)
Length of Visible Light 8h 46m
Length of Day
6h 58m
Full, 100% of the Moon is Illuminated
Nov 17
Full
Nov 25
Last Quarter
Dec 2
New
Dec 9
First Quarter
Dec 17
Full

Hourly Weather History & Observations

Time (AKST) Temp. Windchill Dew Point Humidity Pressure Visibility Wind Dir Wind Speed Gust Speed Precip Events Conditions
12:53 AM 3.0 °F - -0.9 °F 84% 30.22 in 10.0 mi Calm Calm - N/A   Clear
1:53 AM 1.0 °F - -2.9 °F 83% 30.22 in 10.0 mi Calm Calm - N/A   Clear
2:53 AM 3.0 °F - -0.9 °F 84% 30.21 in 10.0 mi Calm Calm - N/A   Clear
3:53 AM -0.9 °F - -6.0 °F 79% 30.21 in 10.0 mi Calm Calm - N/A   Clear
4:53 AM 16.0 °F 0.6 °F -2.0 °F 45% 30.20 in 10.0 mi North 16.1 mph - N/A   Clear
5:53 AM 15.1 °F -1.6 °F -0.9 °F 49% 30.21 in 10.0 mi NNE 18.4 mph 26.5 mph N/A   Clear
6:53 AM 18.0 °F 1.7 °F -2.9 °F 40% 30.21 in 10.0 mi NNE 19.6 mph 26.5 mph N/A   Clear
7:53 AM 18.0 °F 2.6 °F -2.9 °F 40% 30.21 in 10.0 mi NNE 17.3 mph 26.5 mph N/A   Clear
8:53 AM 16.0 °F -0.9 °F -2.0 °F 45% 30.21 in 10.0 mi NNE 19.6 mph - N/A   Clear
9:53 AM 18.0 °F 0.9 °F -2.9 °F 40% 30.21 in 10.0 mi NNE 21.9 mph 27.6 mph N/A   Clear
10:53 AM 18.0 °F -0.5 °F -4.0 °F 38% 30.21 in 10.0 mi NNE 26.5 mph 34.5 mph N/A   Clear
11:53 AM 17.1 °F -2.4 °F -2.0 °F 43% 30.20 in 10.0 mi NNE 28.8 mph 42.6 mph N/A   Clear
12:53 PM 18.0 °F -2.0 °F -2.9 °F 40% 30.18 in 10.0 mi NNE 32.2 mph 40.3 mph N/A   Clear
1:53 PM 17.1 °F -2.0 °F -2.0 °F 43% 30.17 in 10.0 mi North 27.6 mph 44.9 mph N/A   Clear
2:53 PM 17.1 °F -1.4 °F -2.9 °F 41% 30.16 in 10.0 mi NNE 25.3 mph 40.3 mph N/A   Clear
3:53 PM 16.0 °F -3.8 °F -2.9 °F 43% 30.16 in 10.0 mi NNE 28.8 mph 42.6 mph N/A   Clear
4:53 PM 15.1 °F -5.0 °F -4.0 °F 43% 30.15 in 10.0 mi NNE 28.8 mph 42.6 mph N/A   Clear
5:53 PM 15.1 °F -5.0 °F -5.1 °F 41% 30.16 in 10.0 mi NNE 28.8 mph 47.2 mph N/A   Clear
6:53 PM 15.1 °F -5.0 °F -5.1 °F 41% 30.16 in 10.0 mi NNE 28.8 mph 43.7 mph N/A   Clear
7:53 PM 15.1 °F -5.0 °F -5.1 °F 41% 30.16 in 10.0 mi NNE 28.8 mph 40.3 mph N/A   Clear
8:53 PM 14.0 °F -5.5 °F -6.0 °F 41% 30.16 in 10.0 mi NNE 25.3 mph 35.7 mph N/A   Clear
9:53 PM 15.1 °F -4.4 °F -7.1 °F 37% 30.16 in 10.0 mi NNE 26.5 mph 34.5 mph N/A   Clear
10:53 PM 8.1 °F -2.0 °F -2.0 °F 64% 30.18 in 10.0 mi Variable 5.8 mph - N/A   Clear
11:53 PM 8.1 °F 1.4 °F -2.0 °F 64% 30.18 in 10.0 mi SE 3.5 mph - N/A   Clear